Regional Weather Roundup
Issued by NWS Jackson, KY

Home | Current Version | Previous Version | Graphics & Text | Print | Product List | Glossary On
Versions: 1 2 3 4 5 6 7 8 9 10 11 12 13 14 15 16 17 18 19 20 21 22 23 24 25 26 27 28 29 30 31 32 33 34 35 36 37 38 39 40 41 42 43 44 45 46 47 48 49 50
367
ASUS43 KJKL 251610
RWRJKL

EAST KENTUCKY HOURLY WEATHER ROUNDUP
NATIONAL WEATHER SERVICE JACKSON KY
1200 PM EDT SUN JUN 25 2017

NOTE: "FAIR" INDICATES FEW OR NO CLOUDS BELOW 12,000 FEET WITH
NO SIGNIFICANT WEATHER AND/OR OBSTRUCTIONS TO VISIBILITY.

* THESE REPORTS ARE NOT UNDER NWS QUALITY CONTROL AND MAY NOT
  REPORT WEATHER SUCH AS PRECIPITATION AND FOG.

KYZ079-080-083-085-087-088-110-112-115-119-120-251700
...EASTERN KENTUCKY...

CITY           SKY/WX    TMP DP  RH WIND       PRES   REMARKS
JACKSON        SUNNY     72  52  49 VRB5      30.22S
LONDON         SUNNY     74  44  34 W8        30.23S
SOMERSET*      SUNNY     72  45  37 N5        30.24S
MONTICELLO*    SUNNY     74  50  42 N16       30.25S
WILLIAMSBURG*  SUNNY     73  50  43 NW8       30.23S
MIDDLESBORO*   SUNNY     73  53  49 N3        30.23S
HARLAN APT*    SUNNY     73  46  38 W6        30.23S
PIKE CO APT*     N/A     71  51  49 NW7       30.22S
BIG SANDY APT* MOSUNNY   73  50  43 W5        30.21S
MOREHEAD APT*  SUNNY     73  48  40 W6        30.22S HAZE
$$

KYZ035-036-041-042-044-050-067-078-099-251700
...CENTRAL KENTUCKY...

CITY           SKY/WX    TMP DP  RH WIND       PRES   REMARKS
MT STERLING*   SUNNY     73  48  40 W5        30.23S
FLEMING/MASON* SUNNY     74  48  39 W10G17    30.20S
DANVILLE*      SUNNY     73  46  38 W5        30.24S
LEXINGTON      SUNNY     75  48  38 W14       30.22R
FRANKFORT      SUNNY     75  49  39 SW9       30.19S
LOUISVILLE     SUNNY     80  48  32 W16       30.20R
LEBANON*         N/A    N/A N/A N/A MISG        N/A
GLASGOW*       SUNNY     76  51  41 W5        30.24S
BOWLING GREEN  SUNNY     77  50  38 VRB5      30.24S
$$

KYZ091>093-OHZ055-061-077-WVZ005-015-034-035-042-251700
...SOUTHERN OHIO/WEST VIRGINIA...

CITY           SKY/WX    TMP DP  RH WIND       PRES   REMARKS
COVINGTON      SUNNY     75  49  39 W20G26    30.17S
COLUMBUS       MOSUNNY   75  48  38 W20G29    30.11S
DAYTON         MOSUNNY   72  49  44 W21G29    30.14S
WILMINGTON     SUNNY     73  51  46 W16G24    30.14S
HUNTINGTON     SUNNY     74  49  41 SW9       30.18S
CHARLESTON     MOSUNNY   73  47  39 W10G16    30.18S
PINEVILLE*     MOSUNNY   73  49  43 MISG      30.25S
BECKLEY        MOSUNNY   69  49  48 N12G17    30.22R
BLUEFIELD      MOSUNNY   65  50  58 W12G20    30.23S
LOGAN CO APT*    N/A     72  52  49 NW7       30.21S
$$

VAZ002-007-008-TNZ017-027-036-066-071-251700
...SOUTHWEST VIRGINIA/EAST TENNESSEE...

CITY           SKY/WX    TMP DP  RH WIND       PRES   REMARKS
WISE*          PTSUNNY   68  52  56 CALM      30.27S
JONESVILLE*      N/A     73  52  46 N7        30.24S
ABINGDON*      MOSUNNY   71  55  55 NW9       30.23S
BRISTOL        CLOUDY    73  57  57 N3        30.21R
MORRISTOWN*    SUNNY     72  57  60 CALM      30.21F
SEVIERVILLE*   SUNNY     72  57  60 CALM      30.21S
KNOXVILLE      PTSUNNY   70  57  63 NW5       30.22R
LAFOLLETTE*    SUNNY     73  52  46 CALM      30.26R
OAK RIDGE      PTSUNNY   76  52  43 VRB3      30.23R
CROSSVILLE     MOSUNNY   71  50  47 N12       30.26R
NASHVILLE      MOSUNNY   79  49  34 N9        30.25R
$$

...KEY TO REMARKS...
VSB - VISIBILITY IN MILES
WCI - WIND CHILL INDEX
HX  - HEAT INDEX

$$




USA.gov is the U.S. government's official web portal to all federal, state and local government web resources and services.